Location: Dana
(41.8364°N, 106.7042°W)
Time: 02:33:16
(UTC+00:00)

Transit 4A - Pass Details

Date: 15 May 2026
Orbit: 860 x 980 km, 66.8° (Epoch: 6 June)

Event Time Altitude Azimuth Distance (km) Brightness Sun altitude
Rises 22:49:57 0° 334° (NNW) 3,685 11.2 37.2°
Reaches altitude 10° 22:52:45 10° 343° (NNW) 2,739 10.6 36.7°
Maximum altitude 22:58:40 37° 49° (NE) 1,482 8.9 35.6°
Drops below altitude 10° 23:04:29 10° 116° (ESE) 2,710 10.0 34.5°
Sets 23:07:14 0° 124° (SE) 3,642 10.6 34.0°
